TimeCDT,TemperatureF,Dew PointF,Humidity,Sea Level PressureIn,VisibilityMPH,Wind Direction,Wind SpeedMPH,Gust SpeedMPH,PrecipitationIn,Events,Conditions,WindDirDegrees,DateUTC
12:52 AM,73.0,66.0,79,29.68,9.0,SE,6.9,-,N/A,,Clear,140,2012-10-22 05:52:00
1:52 AM,70.0,64.9,84,29.67,8.0,SSE,3.5,-,N/A,,Clear,150,2012-10-22 06:52:00
2:52 AM,69.1,64.9,87,29.66,7.0,SE,3.5,-,N/A,,Clear,130,2012-10-22 07:52:00
3:52 AM,66.9,64.0,90,29.65,6.0,Calm,Calm,-,N/A,,Clear,0,2012-10-22 08:52:00
4:52 AM,69.8,64.4,83,29.68,8.0,Calm,Calm,-,N/A,,Clear,0,2012-10-22 09:52:00
5:52 AM,63.0,61.0,93,29.68,1.5,Calm,Calm,-,N/A,,Clear,0,2012-10-22 10:52:00
6:02 AM,62.6,60.8,94,29.70,0.8,Calm,Calm,-,N/A,,Clear,0,2012-10-22 11:02:00
6:07 AM,62.6,60.8,94,29.70,2.0,Calm,Calm,-,N/A,,Clear,0,2012-10-22 11:07:00
6:26 AM,59.0,59.0,100,29.70,0.8,Calm,Calm,-,N/A,,Clear,0,2012-10-22 11:26:00
6:35 AM,62.6,60.8,94,29.70,0.2,Calm,Calm,-,N/A,Fog,Fog,0,2012-10-22 11:35:00
6:39 AM,62.6,60.8,94,29.70,0.5,Calm,Calm,-,N/A,Fog,Fog,0,2012-10-22 11:39:00
6:41 AM,62.6,60.8,94,29.70,0.2,Calm,Calm,-,N/A,Fog,Fog,0,2012-10-22 11:41:00
6:52 AM,62.6,60.8,94,29.71,0.2,Calm,Calm,-,N/A,Fog,Fog,0,2012-10-22 11:52:00
6:55 AM,62.6,60.8,94,29.71,1.0,Calm,Calm,-,N/A,,Mist,0,2012-10-22 11:55:00
7:07 AM,57.2,57.2,100,29.71,0.2,Calm,Calm,-,N/A,Fog,Fog,0,2012-10-22 12:07:00
7:16 AM,60.8,59.0,94,29.71,0.5,Calm,Calm,-,N/A,Fog,Fog,0,2012-10-22 12:16:00
7:28 AM,60.8,59.0,94,29.72,0.2,Calm,Calm,-,N/A,Fog,Fog,0,2012-10-22 12:28:00
7:52 AM,57.2,55.4,94,29.72,0.2,Calm,Calm,-,N/A,Fog,Fog,0,2012-10-22 12:52:00
8:01 AM,59.0,59.0,100,29.73,1.0,Calm,Calm,-,N/A,,Mostly Cloudy,0,2012-10-22 13:01:00
8:18 AM,60.8,59.0,94,29.73,2.0,Calm,Calm,-,N/A,,Overcast,0,2012-10-22 13:18:00
8:31 AM,62.6,60.8,94,29.74,3.0,Calm,Calm,-,N/A,,Overcast,0,2012-10-22 13:31:00
8:52 AM,64.9,63.0,93,29.73,3.0,Calm,Calm,-,N/A,,Mostly Cloudy,0,2012-10-22 13:52:00
9:03 AM,66.2,64.4,94,29.75,4.0,Calm,Calm,-,N/A,,Partly Cloudy,0,2012-10-22 14:03:00
9:52 AM,70.0,64.0,81,29.74,7.0,SSW,6.9,-,N/A,,Mostly Cloudy,200,2012-10-22 14:52:00
10:37 AM,69.8,57.2,64,29.76,10.0,SSW,10.4,-,N/A,,Partly Cloudy,210,2012-10-22 15:37:00
10:52 AM,71.1,59.0,66,29.74,10.0,SSW,11.5,-,N/A,,Partly Cloudy,210,2012-10-22 15:52:00
11:52 AM,69.1,60.1,73,29.76,10.0,WSW,9.2,-,N/A,,Scattered Clouds,240,2012-10-22 16:52:00
12:02 PM,66.2,60.8,83,29.79,8.0,WSW,12.7,-,N/A,,Mostly Cloudy,240,2012-10-22 17:02:00
12:52 PM,66.0,60.1,81,29.77,8.0,SW,10.4,-,N/A,,Overcast,230,2012-10-22 17:52:00
1:09 PM,66.2,60.8,83,29.80,9.0,SW,11.5,-,N/A,,Overcast,220,2012-10-22 18:09:00
1:52 PM,64.9,60.1,84,29.78,5.0,SW,10.4,-,N/A,,Haze,220,2012-10-22 18:52:00
2:38 PM,62.6,59.0,88,29.80,2.5,WSW,8.1,-,N/A,,Overcast,250,2012-10-22 19:38:00
2:52 PM,62.6,59.0,88,29.79,2.5,West,5.8,-,N/A,,Overcast,260,2012-10-22 19:52:00
3:41 PM,62.6,59.0,88,29.80,3.0,WSW,9.2,-,N/A,,Overcast,250,2012-10-22 20:41:00
3:52 PM,62.1,57.9,86,29.79,4.0,WSW,9.2,-,N/A,,Overcast,240,2012-10-22 20:52:00
4:52 PM,63.0,57.0,81,29.81,7.0,WSW,9.2,-,N/A,,Overcast,240,2012-10-22 21:52:00
5:15 PM,62.6,55.4,77,29.82,6.0,Variable,3.5,-,N/A,,Haze,0,2012-10-22 22:15:00
5:52 PM,62.6,55.4,77,29.83,6.0,SW,6.9,-,N/A,,Haze,230,2012-10-22 22:52:00
6:52 PM,60.1,55.0,83,29.81,8.0,WSW,3.5,-,N/A,,Clear,250,2012-10-22 23:52:00
7:52 PM,59.0,55.0,87,29.81,9.0,Calm,Calm,-,N/A,,Partly Cloudy,0,2012-10-23 00:52:00
8:50 PM,59.0,55.4,88,29.83,9.0,Calm,Calm,-,N/A,,Mostly Cloudy,0,2012-10-23 01:50:00
8:52 PM,59.0,55.0,87,29.83,9.0,Calm,Calm,-,N/A,,Mostly Cloudy,0,2012-10-23 01:52:00
9:22 PM,57.2,55.4,94,29.83,9.0,WNW,3.5,-,N/A,,Scattered Clouds,300,2012-10-23 02:22:00
9:52 PM,57.9,54.0,87,29.83,9.0,West,3.5,-,N/A,,Clear,260,2012-10-23 02:52:00
10:52 PM,55.0,53.1,93,29.81,7.0,Calm,Calm,-,N/A,,Clear,0,2012-10-23 03:52:00
11:52 PM,54.0,53.1,97,29.81,5.0,Calm,Calm,-,N/A,,Clear,0,2012-10-23 04:52:00